Flag for United Kingdom Weather past 2 weeks in Wolverhampton, England, United Kingdom

Now
36 °F

Clear.


Feels Like: 30 °F
Forecast: 32 / 47 °F
Wind: 7 mph from West

Location: Birmingham / Airport

Current Time: Feb 27, 2015 at 7:36:54 AM

Latest Report: Feb 27, 2015 at 6:50 AM


Visibility: 10 mi

Pressure: 30.04 "Hg

Humidity: 81%

Dew point: 30 °F

Location of WolverhamptonLocation

Historic Weather in Wolverhampton — Graph

°F

Wolverhampton temperature yesterday

Maximum temperature yesterday: 50 °F (at 6:50 AM)
Minimum temperature yesterday: 36 °F (at 10:50 PM)
Average temperature yesterday: 45 °F

Past Weeks' High & Low Weather Summary

 TemperatureHumidityPressure
High52 °F (Feb 25, 1:20 PM)100% (Feb 14, 12:20 AM)30.69 "Hg (Feb 14, 12:20 AM)
Low32 °F (Feb 21, 11:20 PM)46% (Feb 17, 1:20 PM)29.12 "Hg (Feb 23, 5:20 PM)
Average41 °F82%29.83 "Hg
* Reported Feb 12 6:20 AM — Feb 27 6:20 AM, Wolverhampton, Weather by CustomWeather, © 2015

Note: Actual official high and low records may vary slightly from our data, if they occured in-between our weather recording intervals... More about our weather records

Advertising

Wolverhampton weather history for previous 24 hours

 ConditionsComfort  
Time TempWeatherWind HumidityBarometerVisibility
6:20 AM
Fri, Feb 27
34 °FClear.3 mph87%30.04 "Hg10 mi
5:50 AM34 °FClear.6 mph87%30.04 "Hg10 mi
5:20 AM34 °FClear.5 mph87%30.04 "Hg10 mi
4:20 AM34 °FClear.6 mph87%30.04 "Hg10 mi
3:20 AM36 °FChilly.6 mph81%30.04 "HgN/A
2:50 AM36 °FChilly.5 mph81%30.01 "HgN/A
2:20 AM34 °FChilly.5 mph87%30.01 "HgN/A
1:50 AM32 °FChilly.3 mph87%30.01 "HgN/A
1:20 AM32 °FChilly.3 mph87%30.01 "HgN/A
12:50 AM36 °FChilly.3 mph75%30.01 "HgN/A
12:20 AM36 °FChilly.7 mph75%30.01 "HgN/A
11:50 PM
Thu, Feb 26
36 °FClear.8 mph75%30.01 "Hg10 mi
11:20 PM36 °FPassing clouds.5 mph75%29.98 "HgN/A
10:50 PM36 °FClear.3 mph75%29.98 "Hg10 mi
10:20 PM37 °FClear.2 mph65%29.98 "Hg10 mi
9:50 PM37 °FPassing clouds.5 mph65%29.98 "HgN/A
9:20 PM37 °FClear.6 mph65%29.95 "Hg10 mi
8:50 PM39 °FClear.6 mph61%29.95 "Hg10 mi
8:20 PM39 °FPassing clouds.5 mph61%29.95 "HgN/A
7:50 PM39 °FPassing clouds.7 mph61%29.95 "HgN/A
7:20 PM41 °FClear.6 mph61%29.95 "Hg10 mi
6:50 PM43 °FClear.8 mph53%29.92 "Hg10 mi
6:20 PM43 °FPassing clouds.14 mph53%29.92 "HgN/A
5:50 PM43 °FPassing clouds.12 mph53%29.92 "HgN/A
5:20 PM45 °FScattered clouds.15 mph53%29.89 "HgN/A
4:50 PM45 °FPartly sunny.12 mph57%29.89 "HgN/A
4:20 PM45 °FScattered clouds.16 mph57%29.86 "HgN/A
3:50 PM45 °FPartly sunny.18 mph61%29.86 "HgN/A
3:20 PM46 °FScattered clouds.13 mph66%29.83 "HgN/A
2:50 PM45 °FScattered clouds.13 mph71%29.86 "HgN/A
2:20 PM43 °FScattered showers. Partly sunny.20 mph81%29.86 "HgN/A
1:50 PM48 °FPartly sunny.20 mph66%29.83 "HgN/A
1:20 PM46 °FScattered clouds.14 mph71%29.80 "HgN/A
12:50 PM46 °FBroken clouds.14 mph76%29.80 "HgN/A
12:20 PM46 °FBroken clouds.13 mph82%29.80 "HgN/A
11:50 AM46 °FMostly cloudy.13 mph87%29.80 "HgN/A
11:20 AM46 °FLight rain. Mostly cloudy.14 mph87%29.80 "HgN/A
10:50 AM50 °FSprinkles. Mostly cloudy.12 mph94%29.74 "Hg3 mi
10:20 AM50 °FDrizzle. Cloudy.8 mph100%29.74 "Hg3 mi
9:50 AM50 °FLight rain. Broken clouds.12 mph94%29.74 "Hg2 mi
9:20 AM50 °FDrizzle. Mostly cloudy.10 mph94%29.74 "Hg3 mi
8:50 AM50 °FDrizzle. Mostly cloudy.12 mph94%29.74 "Hg4 mi
8:20 AM50 °FPartly sunny.13 mph94%29.74 "Hg5 mi
7:50 AM50 °FPartly sunny.12 mph94%29.74 "HgN/A
7:20 AM50 °FPartly sunny.12 mph88%29.74 "HgN/A
Weather by CustomWeather, © 2015

See weather overviewHow to use our weather pages